Location: Rowland
(34.5359°N, 79.2929°W)
Time: 19:07:28
(UTC+00:00)

Transit 2A Rocket - Pass Details

Date: 05 October 2022
Orbit: 589 x 911 km, 66.7° (Epoch: 03 December)

Event Time Altitude Azimuth Distance (km) Brightness Sun altitude
Rises 08:56:26 0° 169° (S) 2,871 - -29.1°
Exits shadow 08:58:59 - 153° (SSE) 2,032 7.3 -28.6°
Reaches altitude 10° 08:59:19 10° 150° (SSE) 1,938 7.2 -28.5°
Maximum altitude 09:02:12 18° 108° (ESE) 1,487 7.1 -27.9°
Drops below altitude 10° 09:05:04 10° 65° (ENE) 1,915 8.0 -27.4°
Sets 09:07:53 0° 46° (NE) 2,824 8.8 -26.8°
